C/2020 M5 ( ATLAS )

Japanese version
Home page
Updated on July 24, 2022

---------------------------------------------------------------------

* Profile

Discovery Date June 30, 2020
Magnitude 19.4 mag
Discoverer Asteroid Terrestrial-Impact Last Alert System (ATLAS) search program

* Pictures

* Orbital Elements

Epoch 2022 Jan. 21.0 TT = JDT 2459600.5
T 2021 Aug. 19.87521 TT                                 Rudenko
q   3.0043002            (2000.0)            P               Q
z  -0.0000802      Peri.  126.33630     -0.59312301     -0.79331254
 +/-0.0000011      Node   352.09387     -0.28631630     +0.36726240
e   1.0002411      Incl.   93.22391     +0.75248128     -0.48556519
From 988 observations 2019 Aug. 10-2022 Feb. 2, mean residual 0".5.

* Finding Charts

* Magnitudes Graph

        m1 = 5.0 + 5 log d + 15.0 log r(t - 70)

---------------------------------------------------------------------

The orbital elements are published on M.P.E.C. 2022-C56.
The charts are made with StellaNavigator Ver.10 (AstroArts).
The magnitudes graphs are made with Comet for Windows.

---------------------------------------------------------------------

Copyright(C) Seiichi Yoshida (comet@aerith.net). All rights reserved.